GFSSGP_250_rhum_132.txt.gz
RH
42 76 100 100 100 20 13 28 31 34 31 43 42 57 65 99 64 100 64 43 36 82 100 100 100 80 64 76 98 96 74 55 58 93 100 100 53 68 67 94 100 93 75 70 69 55 74 86 97
48 66 100 100 92 14 21 30 33 38 40 38 48 47 60 45 36 56 60 42 41 88 100 100 100 92 42 100 66 51 49 68 83 90 89 59 54 56 69 98 100 100 80 100 98 56 66 85 79
55 44 93 84 35 17 23 30 34 42 45 47 53 54 69 86 47 37 36 56 40 53 100 100 100 100 98 97 82 62 54 83 80 93 95 72 74 74 86 93 83 98 98 100 83 62 72 100 100
35 60 90 51 28 20 22 27 32 41 43 50 50 56 47 47 63 52 39 54 78 100 100 100 100 100 87 74 43 48 68 82 70 71 74 86 88 80 92 95 70 65 66 64 72 88 100 96 91
41 99 100 91 26 24 20 29 33 38 47 43 33 37 42 49 43 42 42 40 100 100 100 82 69 73 62 55 41 70 100 100 100 91 90 87 100 100 100 96 66 67 61 60 74 76 100 95 82
97 100 100 37 33 28 24 34 38 39 40 46 30 41 41 43 34 31 36 36 80 91 98 84 76 68 41 45 60 86 100 91 84 97 97 95 100 100 91 72 62 63 64 76 97 100 100 100 100
100 100 79 26 38 32 27 29 42 56 49 26 44 45 32 23 23 32 41 36 39 65 75 65 89 50 73 56 65 89 100 100 100 100 100 70 60 60 58 59 72 86 97 100 100 100 100 100 100
100 100 95 46 36 32 27 32 45 58 24 41 51 36 26 39 28 41 35 31 28 33 64 59 48 48 64 88 88 100 99 100 97 89 72 66 76 92 91 88 82 70 71 81 81 81 63 70 82
39 85 100 100 40 29 26 33 38 52 21 46 38 73 64 53 64 40 19 16 16 18 34 42 49 43 68 71 79 76 89 93 90 74 78 78 71 66 51 37 34 34 38 38 36 37 38 42 70
83 98 100 97 53 34 26 34 37 33 19 54 43 62 53 50 58 66 18 17 14 20 99 73 88 66 50 65 79 80 93 78 92 90 66 96 74 43 33 23 23 24 34 33 32 36 48 81 100
99 100 92 68 90 100 29 35 36 27 25 38 47 58 42 35 51 52 36 18 27 81 84 100 89 100 79 54 78 90 100 100 86 81 70 53 34 93 30 23 25 29 36 50 47 73 98 96 74
100 100 76 67 99 86 34 30 37 30 34 36 40 44 45 45 43 66 52 28 28 50 74 50 89 100 100 100 91 100 92 85 75 47 29 31 31 94 30 38 40 38 37 46 58 60 91 100 99
89 95 70 68 70 60 44 28 38 29 36 36 44 44 36 55 40 65 84 72 70 80 71 79 72 74 91 85 100 93 54 55 50 33 100 85 27 27 31 29 50 71 82 94 100 100 97 72 60
100 86 80 72 50 52 80 84 43 31 34 38 50 45 27 33 47 50 53 73 77 65 57 41 41 36 35 50 59 29 28 32 34 34 40 22 31 31 36 53 46 40 56 65 66 62 68 77 68
100 82 80 70 55 72 97 99 34 35 34 46 56 51 41 26 34 32 28 32 35 41 48 51 61 44 39 32 30 52 43 31 43 33 28 33 30 42 35 32 27 33 35 42 51 75 87 100 100
29 58 100 68 59 54 94 86 31 40 34 41 55 58 52 38 34 27 29 40 45 48 54 55 59 34 26 30 29 36 43 27 29 32 37 47 24 33 64 54 67 43 47 36 41 59 64 42 42
66 55 100 96 61 46 51 72 39 40 41 37 46 49 40 27 28 34 42 39 42 49 44 43 42 53 28 26 20 30 46 28 27 34 31 26 62 82 95 100 90 100 62 49 25 27 29 22 17
86 22 88 100 81 47 47 100 78 76 43 37 38 40 28 27 31 31 34 46 42 43 38 31 31 27 19 15 18 48 48 28 27 33 27 56 97 90 94 94 97 94 100 49 29 27 36 27 22
12 16 73 100 100 60 100 100 100 100 46 39 31 33 26 26 27 35 44 48 50 47 35 20 28 26 13 13 16 22 25 23 28 25 29 85 98 97 100 100 100 100 100 39 17 35 50 50 64
10 22 35 86 79 49 99 87 100 100 64 40 30 26 28 27 26 40 31 36 40 48 39 18 20 24 16 21 23 23 17 16 18 20 48 92 87 100 100 100 100 94 58 26 28 55 92 98 100
9 10 15 99 72 55 60 70 100 95 60 42 29 23 27 27 31 67 75 65 54 55 54 38 17 18 31 34 14 14 15 16 19 18 20 26 40 66 100 100 98 90 100 62 98 95 89 100 100
8 9 13 56 83 72 64 100 52 31 79 100 96 23 27 28 48 88 85 92 89 52 50 52 28 16 19 25 22 18 14 14 13 16 18 23 25 19 27 78 100 100 100 58 82 76 85 99 100
6 8 10 14 100 90 96 100 56 47 57 100 100 31 22 25 84 92 94 83 97 100 94 74 55 27 25 31 32 16 24 23 12 14 16 15 16 15 14 18 59 62 37 28 38 47 58 97 100
7 6 8 11 63 95 100 98 58 57 55 100 97 22 25 30 80 67 55 65 80 81 82 90 78 64 50 24 45 75 100 79 25 21 15 12 12 13 15 16 18 26 27 31 34 33 21 21 16
8 6 7 9 13 67 100 96 97 100 90 78 51 33 30 26 50 48 33 46 64 67 71 70 67 45 34 30 26 43 43 47 28 16 9 9 9 11 16 31 25 30 27 27 35 29 25 26 18
10 7 6 8 12 19 100 92 100 100 100 59 67 39 33 35 44 61 36 39 46 50 56 59 63 48 25 22 22 25 31 26 35 31 18 17 14 24 35 34 26 28 25 26 23 22 28 29 24
12 8 6 8 13 14 90 90 100 100 100 69 65 66 38 30 31 50 50 35 35 44 46 43 46 60 61 41 32 25 32 32 34 33 28 16 28 87 57 20 27 24 29 28 23 27 49 41 36
13 12 9 8 10 12 94 89 100 100 100 65 52 87 63 30 34 28 57 49 38 35 38 46 45 41 53 67 35 41 43 44 35 32 25 30 48 100 100 56 31 35 35 43 37 35 43 32 28
16 13 12 8 7 12 59 100 100 99 96 100 74 49 38 60 100 35 33 40 43 44 36 41 45 58 50 68 64 45 41 46 77 64 38 44 99 62 45 31 31 31 39 44 52 54 78 76 70
17 13 14 10 7 14 18 100 100 100 89 100 100 56 42 32 29 32 36 33 34 43 48 44 39 44 46 51 66 64 60 50 40 39 35 36 56 39 30 41 29 34 54 66 69 52 80 88 92

GFSSGP_250_rhum_135.txt.gz
RH
83 98 79 100 59 30 15 20 24 29 41 37 31 34 75 86 93 69 59 40 36 36 46 100 88 75 76 100 100 96 98 88 78 83 86 72 88 86 67 59 55 83 100 100 91 59 49 48 47
72 100 100 92 45 28 16 17 20 31 38 47 40 43 45 58 76 56 75 50 35 39 98 100 64 100 71 77 100 100 100 93 93 63 81 68 70 100 58 48 79 89 97 100 99 72 100 100 70
91 100 100 100 69 31 20 15 22 36 36 41 59 42 52 56 57 44 39 48 33 37 100 100 84 99 100 99 100 100 100 98 97 64 76 82 100 93 65 70 84 87 87 73 74 100 100 100 53
100 100 100 100 36 35 20 18 24 48 62 46 24 23 32 33 49 61 43 39 30 45 100 100 98 100 100 95 47 81 100 92 58 61 84 70 90 85 92 72 70 75 83 80 65 52 51 46 46
100 100 100 99 36 26 20 20 28 42 66 30 25 26 28 38 37 38 55 44 37 42 98 100 98 100 67 89 80 100 92 68 71 70 69 81 72 56 66 93 100 100 100 73 60 53 49 61 75
100 100 100 89 44 30 25 23 30 24 39 44 36 26 25 21 26 32 37 42 65 77 83 99 100 92 74 99 100 100 64 37 48 96 90 100 100 99 94 77 75 75 72 64 64 70 83 95 98
95 100 94 88 69 33 25 25 23 18 27 38 51 35 31 29 22 26 29 38 82 96 87 71 66 91 100 90 70 40 39 49 70 97 100 100 96 89 65 46 49 59 63 68 79 97 98 100 100
98 100 98 98 95 49 27 28 21 22 31 46 43 48 42 34 22 50 55 63 63 90 80 85 50 46 38 58 56 37 37 65 76 70 100 91 75 74 72 59 51 55 47 43 43 42 46 49 86
100 100 100 100 74 70 33 29 24 29 33 38 36 37 36 42 56 15 14 31 98 93 84 72 66 52 52 58 62 44 46 59 75 94 76 62 87 93 57 42 37 29 23 23 29 36 38 42 80
100 100 100 91 93 93 40 31 30 28 34 41 38 37 38 32 45 20 14 14 24 43 63 88 98 99 54 41 48 52 52 54 75 98 87 78 98 92 39 63 54 28 22 27 40 42 66 97 100
100 100 100 80 100 92 42 30 31 30 29 43 35 24 40 33 57 25 15 26 35 77 81 100 100 100 95 72 55 46 44 81 92 78 63 60 42 42 62 30 32 36 36 44 51 96 100 93 83
100 100 95 89 77 76 49 58 32 29 36 43 46 23 28 37 64 34 34 57 100 100 100 100 100 100 87 82 78 79 88 96 57 32 30 90 80 94 33 35 32 52 66 74 91 100 100 99 69
100 100 91 92 59 83 94 100 93 27 35 48 51 36 25 35 64 61 34 77 78 98 100 95 100 100 98 85 75 88 97 62 28 33 75 63 53 46 42 33 46 57 59 65 84 87 54 62 66
92 100 100 93 59 88 100 100 89 34 44 49 56 45 29 30 37 49 58 52 60 80 100 90 85 85 86 94 100 100 71 29 25 89 24 42 33 22 21 37 45 56 47 56 51 42 66 43 34
69 84 100 100 52 77 100 100 86 35 42 38 47 26 25 27 28 32 35 38 38 39 36 32 42 45 55 80 100 63 52 26 24 21 15 22 22 48 48 43 66 59 54 72 56 49 26 20 22
98 84 99 100 55 58 99 84 100 79 42 37 37 20 23 28 37 42 38 37 38 43 42 26 18 46 55 32 41 45 34 27 20 16 22 28 79 100 96 94 72 44 32 25 27 23 20 21 25
91 95 98 96 65 48 85 82 88 70 42 39 23 22 24 30 30 42 45 52 65 56 38 33 26 25 18 19 26 61 28 27 25 27 70 85 100 100 100 99 48 25 17 16 16 19 22 25 24
25 36 83 100 95 76 70 70 98 99 65 32 20 24 25 28 31 37 42 51 64 41 42 16 18 29 20 27 36 27 32 37 46 54 98 100 100 97 100 100 100 59 52 30 29 51 75 55 68
98 80 62 94 100 97 65 62 81 100 99 32 22 22 23 34 39 41 42 32 38 33 44 18 16 18 28 38 29 22 32 57 77 100 99 100 99 100 100 100 98 100 100 93 100 100 100 100 83
16 28 63 73 96 91 75 61 100 97 100 89 31 20 23 26 30 36 42 27 17 25 32 31 17 27 23 14 14 17 22 51 70 84 92 100 100 96 99 100 90 100 92 90 100 100 66 100 99
10 17 78 91 100 92 60 56 100 100 85 100 42 24 23 26 46 45 42 38 19 19 34 32 21 13 12 15 17 18 24 46 80 88 86 93 100 93 99 77 100 100 79 100 100 100 100 98 100
9 10 47 53 100 72 41 50 100 78 82 95 95 36 25 26 45 68 51 46 32 15 19 38 22 18 14 13 16 48 67 59 63 89 99 96 100 100 93 98 100 100 99 99 100 100 85 82 100
7 9 10 18 39 89 49 65 94 86 59 100 100 97 31 27 46 83 84 69 68 26 19 26 53 19 16 17 20 17 17 25 32 31 35 45 100 94 99 100 100 99 76 81 100 95 81 94 99
10 7 8 9 15 100 60 63 63 87 62 100 100 100 72 28 39 67 48 60 81 71 34 30 40 18 18 64 53 14 15 20 23 19 15 26 71 91 90 78 61 50 51 52 84 79 91 93 93
13 10 7 7 8 56 87 94 80 94 49 100 100 86 64 27 33 58 70 47 55 63 54 45 34 30 43 100 100 41 11 18 14 12 14 26 18 24 32 40 37 41 26 20 27 34 26 14 14
12 12 9 7 6 34 99 86 100 100 52 76 98 100 34 25 33 41 53 50 44 56 52 34 30 35 40 66 82 23 25 24 21 22 13 14 24 23 34 34 39 33 28 27 20 24 18 22 26
10 10 9 8 5 11 98 83 100 100 67 66 91 96 73 26 27 33 36 29 36 41 59 58 39 26 24 37 39 31 18 20 20 14 13 35 52 40 60 35 28 22 20 26 26 33 24 25 26
10 11 10 9 7 6 25 98 100 100 100 100 100 89 100 46 28 30 32 30 30 32 37 40 48 50 39 34 36 35 33 21 25 18 49 84 41 27 24 31 36 27 31 34 51 39 46 32 38
21 18 15 10 9 5 10 76 100 100 100 100 100 86 83 100 32 24 28 32 42 32 34 36 38 44 56 43 42 40 43 58 27 21 68 84 92 88 26 33 32 42 38 29 38 45 35 33 32
22 20 17 12 10 6 8 19 89 100 100 100 100 90 59 100 98 19 25 33 35 54 33 36 36 34 42 54 46 35 48 71 45 76 31 100 99 94 43 50 55 44 46 37 44 70 64 76 65

GFSSGP_250_rhum_138.txt.gz
RH
98 98 100 100 36 26 23 32 35 39 46 46 54 46 63 82 76 76 40 40 49 94 100 100 100 84 85 92 77 80 100 96 60 94 100 100 98 91 83 66 84 51 63 72 71 100 100 90 78
100 99 100 100 66 28 28 32 39 24 40 43 61 64 53 85 89 87 86 51 47 48 78 87 100 79 98 100 100 100 99 98 100 100 100 98 91 81 72 81 82 75 72 68 93 96 75 66 96
100 71 88 92 75 32 34 34 25 18 28 37 28 38 58 59 63 63 44 55 68 36 38 54 100 96 74 100 100 99 100 99 75 93 100 98 71 73 68 81 84 72 56 62 75 89 88 83 59
100 82 100 100 81 32 31 30 18 21 25 26 33 31 28 33 41 63 56 39 45 38 87 89 100 98 68 95 100 93 100 96 100 100 100 82 74 95 78 69 55 55 89 95 97 100 94 72 60
96 100 95 99 100 54 31 31 22 26 31 35 58 36 28 26 37 33 56 48 36 37 94 100 96 87 74 89 100 89 99 98 76 83 88 75 70 53 56 100 100 100 98 72 78 74 68 71 95
99 99 100 100 99 84 43 27 22 30 24 33 56 49 45 31 27 37 38 51 52 42 82 100 100 100 62 48 56 95 75 79 97 54 64 57 91 100 100 100 94 91 82 70 75 73 96 100 98
100 100 100 80 99 80 50 28 24 29 33 31 39 35 41 62 25 27 34 42 45 62 81 100 83 84 68 35 34 43 71 98 100 54 54 48 81 93 98 75 67 80 78 72 80 85 68 62 66
100 100 100 92 100 96 59 32 35 33 38 44 25 39 31 55 22 48 42 49 49 82 81 97 97 100 86 66 48 100 88 100 64 38 46 40 33 80 88 88 83 52 44 34 29 34 34 48 60
98 100 100 89 100 100 62 38 33 34 39 52 30 30 35 56 29 51 54 72 58 98 100 72 92 99 100 100 89 57 52 42 39 36 51 62 74 91 90 99 55 52 68 32 26 38 39 56 93
100 100 99 100 100 88 92 70 46 29 42 56 38 31 36 54 28 19 22 80 58 84 99 89 97 76 66 75 63 54 92 59 40 43 53 76 79 82 88 67 50 51 49 29 38 48 80 87 77
100 100 100 96 100 100 98 96 99 37 42 58 54 29 40 73 28 17 16 48 100 100 100 100 87 89 97 100 100 69 70 56 47 45 71 60 91 57 41 36 34 39 46 51 67 59 63 74 63
100 100 100 100 100 98 100 99 100 68 41 59 66 31 45 72 72 66 32 55 73 100 100 71 81 81 93 80 86 73 65 48 60 61 38 80 56 33 36 46 48 59 66 63 54 62 47 36 34
100 100 100 100 100 92 87 100 59 78 36 58 60 33 36 75 68 98 100 99 100 100 100 92 57 63 72 79 75 74 56 78 60 58 43 62 36 29 35 66 68 66 58 49 63 37 22 24 26
100 100 100 100 95 100 100 68 71 75 40 63 36 26 30 56 62 85 100 100 100 100 100 100 100 97 68 76 34 49 52 74 41 30 32 37 58 46 38 42 46 64 32 26 30 36 28 23 18
100 100 93 100 98 93 72 84 81 48 40 33 19 29 35 37 37 36 45 41 44 52 60 73 81 98 88 74 38 37 34 27 32 33 80 81 52 59 63 54 56 44 31 33 45 47 26 18 18
100 100 78 100 100 79 59 96 59 46 44 26 17 29 29 24 44 45 46 47 51 42 43 49 73 67 54 96 70 72 41 25 29 60 91 89 37 48 57 49 44 25 23 30 24 24 24 24 36
100 100 93 99 100 96 83 87 48 52 72 27 21 23 30 34 43 48 60 51 65 35 28 38 30 31 56 48 59 70 26 19 62 93 100 100 56 29 22 20 21 25 39 39 46 48 38 31 82
80 87 100 100 100 97 70 56 67 45 96 28 25 27 35 43 40 54 63 52 80 37 21 21 22 22 24 26 59 43 45 24 55 83 100 92 100 92 38 20 26 50 64 79 99 100 100 95 46
24 98 100 100 100 96 68 48 68 52 96 39 22 25 41 38 42 40 44 48 68 31 38 43 31 15 24 36 56 30 20 32 68 98 100 100 100 79 95 44 94 100 100 78 78 95 89 96 100
16 43 100 100 100 91 64 75 68 69 73 81 30 24 36 48 53 33 29 42 57 28 55 53 44 34 29 33 30 22 35 61 80 71 100 99 41 64 71 83 100 100 97 92 94 82 60 64 98
12 16 38 97 70 100 77 38 80 59 52 93 91 24 26 41 48 46 23 34 57 22 18 22 22 23 25 25 24 58 76 72 78 60 93 90 66 81 100 99 96 100 100 100 93 92 53 79 88
10 11 27 65 69 91 69 31 40 58 67 70 98 29 30 56 44 69 28 26 55 25 15 19 22 25 26 41 54 57 72 92 100 100 82 54 49 79 89 96 88 100 100 94 100 77 75 90 73
9 10 14 90 73 99 57 28 66 73 63 79 99 33 33 69 51 60 62 22 48 30 16 21 19 20 36 48 51 66 90 100 100 100 100 71 62 65 63 84 98 99 100 100 90 78 85 56 68
7 8 9 13 19 75 59 71 66 62 68 79 100 61 44 36 94 90 93 24 39 43 17 19 27 38 37 30 34 48 56 65 71 93 100 100 88 58 73 87 74 100 100 93 87 75 84 80 100
10 7 7 8 15 68 76 76 48 62 97 79 89 100 97 28 71 84 62 84 25 37 17 20 23 48 18 17 18 24 26 22 34 51 97 100 76 99 82 44 54 86 95 97 91 69 59 68 59
12 11 12 7 8 32 95 100 50 73 100 94 83 100 100 61 59 60 62 70 46 38 25 16 56 74 68 35 17 17 19 15 17 36 42 69 58 40 27 23 32 34 36 26 19 18 26 34 20
18 16 15 11 8 7 22 56 68 63 79 86 91 78 98 34 46 73 63 62 49 42 32 30 36 57 58 26 24 30 19 22 27 28 22 23 30 30 52 32 24 23 21 18 26 19 21 24 25
18 16 15 13 12 10 6 9 48 59 77 72 96 97 93 35 50 70 71 64 58 53 37 32 30 34 48 40 32 28 21 15 17 28 29 30 43 52 50 34 32 26 30 21 24 24 27 28 33
18 15 14 12 11 11 9 7 20 58 94 62 95 90 74 45 30 37 59 69 63 74 85 59 42 32 35 37 30 25 27 16 16 38 36 32 39 39 32 20 20 25 32 34 32 32 30 37 39
14 13 12 10 10 9 9 8 7 39 76 100 100 71 85 70 99 32 38 54 49 39 49 47 56 53 42 36 35 35 31 25 16 52 35 32 24 25 30 29 27 29 29 38 43 36 37 40 41

GFSSGP_250_rhum_141.txt.gz
RH
76 100 65 78 82 36 31 23 24 32 45 53 59 63 56 63 47 43 39 37 60 98 100 100 98 100 57 84 100 94 74 88 95 94 78 84 90 98 81 74 76 62 89 73 68 52 50 70 80
59 70 84 61 92 38 31 26 28 31 38 37 36 57 65 81 81 77 88 71 44 39 38 50 100 77 63 90 100 98 100 86 100 47 68 75 100 96 80 75 80 78 64 63 50 56 67 65 76
45 89 93 96 94 59 36 30 33 29 30 41 41 31 38 67 71 79 91 75 70 56 44 59 100 100 98 100 100 100 100 100 92 56 98 100 86 88 86 72 71 70 69 50 64 78 74 98 100
46 91 75 100 98 64 41 36 34 38 32 35 51 56 37 28 56 76 79 56 41 73 51 47 87 99 96 100 96 73 82 100 94 100 62 95 78 96 85 56 55 62 68 97 99 91 81 88 90
99 73 96 100 98 73 52 34 30 37 41 34 44 43 47 29 30 40 63 74 46 43 48 42 68 100 100 100 100 81 100 100 98 85 96 84 97 100 83 52 85 100 100 93 90 99 100 100 100
100 100 99 100 100 97 56 37 33 37 48 43 34 41 42 56 26 37 37 64 58 42 82 82 100 100 100 100 100 89 100 100 100 94 87 95 79 88 100 86 97 80 91 100 100 88 84 90 91
100 100 100 100 90 100 75 75 44 42 52 52 27 34 37 39 26 33 35 41 60 42 100 100 100 100 100 100 100 100 100 99 60 63 74 97 91 53 59 47 54 82 99 71 44 39 36 35 39
68 80 69 96 98 93 73 100 68 52 40 53 26 30 40 45 22 32 32 36 46 44 89 100 94 76 80 76 93 74 56 57 55 63 70 100 63 35 48 64 84 100 85 62 62 40 27 33 43
100 100 99 100 70 92 76 100 97 88 39 49 30 36 52 44 22 54 48 46 44 62 100 100 100 68 53 76 51 33 32 60 91 66 64 62 44 57 71 100 100 100 79 75 68 27 36 48 63
99 100 94 89 100 85 86 100 100 98 50 40 36 39 61 31 18 21 74 64 54 92 100 100 100 73 52 48 73 85 91 63 62 74 82 64 65 72 72 81 93 88 63 42 28 38 58 66 43
100 100 100 100 70 100 95 100 100 99 73 40 38 36 59 33 32 17 33 91 84 96 100 79 87 95 84 96 70 75 81 61 94 85 77 82 74 45 26 36 48 38 35 45 59 72 56 36 31
98 100 100 100 82 87 100 75 100 95 74 30 28 32 78 89 48 24 84 100 100 95 97 93 86 92 91 62 66 100 100 95 95 91 68 71 58 24 28 35 32 43 64 86 59 58 40 26 20
100 100 100 100 94 100 100 69 100 95 46 29 29 30 66 93 100 75 50 87 96 95 86 74 68 81 76 76 64 100 100 100 98 59 66 61 32 33 34 48 65 74 57 65 59 41 25 19 20
100 100 79 100 100 98 85 91 100 62 51 29 35 32 38 63 100 100 98 94 89 90 68 53 58 45 46 46 50 80 92 84 44 50 60 64 57 38 44 44 53 56 49 39 22 18 19 18 22
100 100 100 100 100 98 80 100 71 73 63 30 36 41 48 48 45 50 58 74 96 100 100 96 72 59 53 54 59 97 77 44 48 47 53 44 38 37 26 33 35 23 21 17 18 18 21 30 42
100 100 85 100 100 100 100 63 62 42 41 27 33 34 44 50 58 60 55 67 58 47 59 78 92 100 85 58 60 40 36 45 60 36 49 41 29 26 29 24 20 22 22 25 29 36 45 58 94
100 100 91 98 100 100 97 66 58 31 71 35 33 39 42 48 54 60 58 70 65 36 51 42 51 68 96 72 71 35 54 85 86 40 34 29 26 25 31 44 45 38 40 69 85 69 91 100 83
100 100 100 98 100 100 98 79 54 49 59 43 31 33 43 40 48 57 57 76 57 39 39 23 41 39 70 82 100 40 82 100 85 100 22 26 33 50 70 97 95 100 100 100 100 100 100 100 89
71 100 100 100 92 100 100 86 56 53 65 58 30 42 40 34 42 51 56 53 42 66 39 25 21 24 60 79 55 45 72 95 93 76 19 30 44 52 69 75 73 76 97 100 100 100 86 77 76
13 35 100 94 96 100 100 92 64 51 61 100 62 44 50 52 30 38 54 40 32 53 27 16 16 32 56 55 50 47 76 71 79 71 62 43 60 95 61 59 86 92 78 100 100 100 99 60 65
11 18 100 100 66 100 100 98 63 60 62 78 99 86 60 46 32 26 56 29 27 33 34 30 33 35 48 42 31 42 64 68 47 41 55 67 88 100 88 90 99 63 67 73 82 85 74 88 68
9 12 87 100 92 100 100 100 100 53 39 52 80 97 55 59 45 26 48 21 24 26 32 27 24 32 29 25 35 45 55 52 41 56 71 82 95 100 95 96 100 80 67 68 73 80 62 67 46
10 9 12 55 75 86 100 100 69 71 44 46 72 70 70 63 51 22 41 28 19 26 27 31 22 25 39 53 53 55 39 42 79 85 57 74 99 100 100 100 100 89 78 54 96 68 62 71 52
9 11 10 11 14 21 70 99 49 57 41 53 86 65 77 69 55 21 30 35 20 20 30 32 33 44 48 58 57 35 60 81 76 73 58 47 76 96 99 91 85 93 96 91 87 71 63 79 70
9 9 11 11 11 13 72 98 63 50 43 49 88 63 76 100 56 41 20 26 24 24 32 36 33 38 42 45 40 70 83 77 56 84 57 50 68 98 100 79 82 83 100 86 87 73 81 77 74
10 10 9 10 11 10 38 89 43 42 54 45 86 100 85 99 91 57 24 30 20 33 43 49 47 46 48 45 45 52 59 67 82 79 41 55 73 58 51 74 75 97 100 89 63 57 34 39 29
18 13 12 9 10 10 10 64 63 45 61 62 100 97 96 91 90 65 56 28 23 20 27 25 14 16 24 29 29 34 46 44 79 90 72 83 89 34 55 63 52 38 34 24 26 28 21 20 21
21 20 17 14 11 11 9 10 13 31 63 61 94 86 73 100 92 56 51 38 32 20 46 89 71 26 17 15 17 19 17 23 35 70 71 41 31 36 56 40 34 26 21 20 23 24 27 35 34
21 21 20 18 16 14 14 9 9 65 58 57 76 100 49 77 100 62 65 52 39 38 24 27 43 46 34 24 23 15 13 20 22 21 23 23 34 46 38 23 20 20 22 20 25 28 33 37 40
22 20 20 19 16 15 14 14 10 48 82 76 42 100 79 86 67 58 67 65 49 33 29 31 29 44 46 34 28 18 12 15 19 22 27 34 33 26 24 24 27 29 25 27 30 31 32 36 39